Location: B?lite?ti
(46.2833°N, 22.7333°E)
Time: 04:14:24
(UTC+00:00)

CZ-4B R/B - Pass Details

Date: 24 January 2021
Orbit: 809 x 882 km, 99.1° (Epoch: 26 February)

Event Time Altitude Azimuth Distance (km) Brightness Sun altitude
Rises 15:41:21 0° 157° (SSE) 3,416 6.4 -3.8°
Reaches altitude 10° 15:43:42 10° 156° (SSE) 2,494 5.7 -4.2°
Maximum altitude 15:49:14 75° 72° (ENE) 907 3.3 -5.1°
Drops below altitude 10° 15:54:53 10° 348° (NNW) 2,545 5.6 -6.0°
Sets 15:57:18 0° 347° (NNW) 3,492 6.3 -6.4°
